• In Österreich
  • Länderverzeichnis
  • Für 7 Tage
  • Wassertemperatur
  • Satellitenkarten
  • Wetterkarte
  • News
  • Widgets
  • user-avatar
    Anmelden

    Stündliche Wetter Perth

    Heute, 13 Dezember, Mittwoch

    Zeit Temperatur Niederschläge Wind Luftdruck Luftfeuchtigkeit
    00:00 +20°C° 0 mm 6 m/S 759 mmHg 72%
    01:00 +19°C° 0 mm 6 m/S 759 mmHg 74%
    02:00 +19°C° 0 mm 6 m/S 759 mmHg 75%
    03:00 +17°C° 0 mm 5 m/S 759 mmHg 76%
    04:00 +16°C° 0 mm 5 m/S 759 mmHg 77%
    05:00 +16°C° 0 mm 5 m/S 760 mmHg 78%
    06:00 +18°C° 0 mm 4 m/S 760 mmHg 70%
    07:00 +20°C° 0 mm 4 m/S 760 mmHg 62%
    08:00 +21°C° 0 mm 4 m/S 761 mmHg 54%
    09:00 +23°C° 0 mm 4 m/S 761 mmHg 48%
    10:00 +26°C° 0 mm 4 m/S 761 mmHg 41%
    11:00 +28°C° 0 mm 4 m/S 761 mmHg 35%
    12:00 +28°C° 0 mm 5 m/S 760 mmHg 35%
    13:00 +29°C° 0 mm 5 m/S 760 mmHg 35%
    14:00 +29°C° 0 mm 6 m/S 760 mmHg 35%
    15:00 +28°C° 0 mm 6 m/S 760 mmHg 37%
    16:00 +28°C° 0 mm 7 m/S 759 mmHg 40%
    17:00 +27°C° 0 mm 7 m/S 759 mmHg 43%
    18:00 +26°C° 0 mm 7 m/S 760 mmHg 47%
    19:00 +23°C° 0 mm 6 m/S 760 mmHg 51%
    20:00 +22°C° 0 mm 6 m/S 760 mmHg 55%
    21:00 +21°C° 0 mm 6 m/S 761 mmHg 55%
    22:00 +21°C° 0 mm 6 m/S 761 mmHg 55%
    23:00 +21°C° 0 mm 6 m/S 761 mmHg 55%

    Morgen, 14 Dezember, Donnerstag

    Zeit Temperatur Niederschläge Wind Luftdruck Luftfeuchtigkeit
    00:00 +20°C° 0 mm 5 m/S 761 mmHg 56%
    01:00 +20°C° 0 mm 5 m/S 761 mmHg 57%
    02:00 +19°C° 0 mm 5 m/S 761 mmHg 59%
    03:00 +17°C° 0 mm 5 m/S 761 mmHg 61%
    04:00 +18°C° 0 mm 4 m/S 761 mmHg 63%
    05:00 +18°C° 0 mm 4 m/S 761 mmHg 64%
    06:00 +19°C° 0 mm 4 m/S 761 mmHg 59%
    07:00 +21°C° 0 mm 4 m/S 761 mmHg 54%
    08:00 +22°C° 0 mm 4 m/S 761 mmHg 49%
    09:00 +25°C° 0 mm 3 m/S 761 mmHg 43%
    10:00 +28°C° 0 mm 3 m/S 761 mmHg 36%
    11:00 +30°C° 0 mm 3 m/S 760 mmHg 30%
    12:00 +31°C° 0 mm 3 m/S 760 mmHg 29%
    13:00 +33°C° 0 mm 4 m/S 759 mmHg 27%
    14:00 +34°C° 0 mm 4 m/S 758 mmHg 26%
    15:00 +33°C° 0 mm 5 m/S 758 mmHg 30%
    16:00 +32°C° 0 mm 6 m/S 758 mmHg 34%
    17:00 +29°C° 0 mm 6 m/S 758 mmHg 38%
    18:00 +27°C° 0 mm 6 m/S 758 mmHg 46%
    19:00 +24°C° 0 mm 6 m/S 758 mmHg 54%
    20:00 +22°C° 0 mm 6 m/S 758 mmHg 62%
    21:00 +22°C° 0 mm 6 m/S 758 mmHg 63%
    22:00 +21°C° 0 mm 6 m/S 758 mmHg 64%
    23:00 +21°C° 0 mm 5 m/S 758 mmHg 65%

    übermorgen, 15 Dezember, Freitag

    Zeit Temperatur Niederschläge Wind Luftdruck Luftfeuchtigkeit
    00:00 +21°C° 0 mm 5 m/S 758 mmHg 66%
    01:00 +20°C° 0 mm 5 m/S 757 mmHg 66%
    02:00 +20°C° 0 mm 5 m/S 757 mmHg 66%
    03:00 +20°C° 0 mm 4 m/S 757 mmHg 68%
    04:00 +20°C° 0 mm 4 m/S 757 mmHg 70%
    05:00 +19°C° 0 mm 4 m/S 757 mmHg 71%
    06:00 +21°C° 0 mm 4 m/S 757 mmHg 65%
    07:00 +23°C° 0 mm 4 m/S 757 mmHg 58%
    08:00 +25°C° 0 mm 3 m/S 757 mmHg 52%
    09:00 +28°C° 0 mm 4 m/S 757 mmHg 44%
    10:00 +32°C° 0 mm 4 m/S 756 mmHg 36%
    11:00 +35°C° 0 mm 4 m/S 756 mmHg 28%
    12:00 +35°C° 0 mm 4 m/S 755 mmHg 27%
    13:00 +36°C° 0 mm 5 m/S 754 mmHg 27%
    14:00 +36°C° 0 mm 6 m/S 754 mmHg 26%
    15:00 +35°C° 0 mm 6 m/S 753 mmHg 28%
    16:00 +34°C° 0 mm 7 m/S 753 mmHg 30%
    17:00 +33°C° 0 mm 7 m/S 753 mmHg 33%
    18:00 +30°C° 0 mm 7 m/S 753 mmHg 39%
    19:00 +27°C° 0 mm 6 m/S 753 mmHg 46%
    20:00 +24°C° 0 mm 6 m/S 754 mmHg 52%
    21:00 +24°C° 0 mm 6 m/S 754 mmHg 53%
    22:00 +23°C° 0 mm 5 m/S 754 mmHg 54%
    23:00 +23°C° 0 mm 5 m/S 755 mmHg 55%

    16 Dezember, Samstag

    Zeit Temperatur Niederschläge Wind Luftdruck Luftfeuchtigkeit
    00:00 +22°C° 0 mm 5 m/S 755 mmHg 57%
    01:00 +22°C° 0 mm 5 m/S 754 mmHg 60%
    02:00 +22°C° 0 mm 5 m/S 754 mmHg 62%
    03:00 +21°C° 0 mm 4 m/S 754 mmHg 64%
    04:00 +21°C° 0 mm 4 m/S 754 mmHg 65%
    05:00 +20°C° 0 mm 4 m/S 754 mmHg 67%
    06:00 +22°C° 0 mm 3 m/S 754 mmHg 61%
    07:00 +24°C° 0 mm 3 m/S 754 mmHg 56%
    08:00 +26°C° 0 mm 2 m/S 754 mmHg 50%
    09:00 +27°C° 0 mm 3 m/S 754 mmHg 46%
    10:00 +29°C° 0 mm 4 m/S 754 mmHg 42%
    11:00 +32°C° 0 mm 5 m/S 754 mmHg 38%
    12:00 +30°C° 0 mm 5 m/S 753 mmHg 39%
    13:00 +30°C° 0 mm 6 m/S 753 mmHg 40%
    14:00 +29°C° 0 mm 7 m/S 753 mmHg 41%
    15:00 +28°C° 0 mm 7 m/S 753 mmHg 44%
    16:00 +27°C° 0 mm 6 m/S 753 mmHg 48%
    17:00 +24°C° 0 mm 6 m/S 753 mmHg 51%
    18:00 +23°C° 0 mm 6 m/S 753 mmHg 60%
    19:00 +21°C° 0 mm 5 m/S 753 mmHg 68%
    20:00 +19°C° 0 mm 5 m/S 754 mmHg 76%
    21:00 +19°C° 0,1 mm 5 m/S 754 mmHg 77%
    22:00 +20°C° 0,1 mm 5 m/S 754 mmHg 77%
    23:00 +20°C° 0,1 mm 5 m/S 754 mmHg 78%

    17 Dezember, Sonntag

    Zeit Temperatur Niederschläge Wind Luftdruck Luftfeuchtigkeit
    00:00 +20°C° 0,2 mm 6 m/S 753 mmHg 77%
    01:00 +19°C° 0,2 mm 6 m/S 753 mmHg 76%
    02:00 +19°C° 0,2 mm 6 m/S 752 mmHg 75%
    03:00 +19°C° 0,1 mm 6 m/S 752 mmHg 75%
    04:00 +17°C° 0,1 mm 6 m/S 752 mmHg 74%
    05:00 +17°C° 0,1 mm 6 m/S 752 mmHg 74%
    06:00 +17°C° 0,2 mm 6 m/S 752 mmHg 72%
    07:00 +17°C° 0,2 mm 7 m/S 752 mmHg 71%
    08:00 +17°C° 0,2 mm 7 m/S 753 mmHg 70%
    09:00 +17°C° 0,1 mm 8 m/S 753 mmHg 63%
    10:00 +18°C° 0,1 mm 8 m/S 753 mmHg 57%
    11:00 +18°C° 0,1 mm 8 m/S 753 mmHg 51%
    12:00 +20°C° 0,1 mm 8 m/S 753 mmHg 47%
    13:00 +19°C° 0,1 mm 9 m/S 752 mmHg 43%
    14:00 +21°C° 0,1 mm 9 m/S 752 mmHg 40%
    15:00 +21°C° 0,1 mm 9 m/S 752 mmHg 42%
    16:00 +19°C° 0,1 mm 9 m/S 752 mmHg 44%
    17:00 +19°C° 0,1 mm 9 m/S 751 mmHg 45%
    18:00 +18°C° 0,2 mm 9 m/S 752 mmHg 50%
    19:00 +17°C° 0,2 mm 9 m/S 752 mmHg 55%
    20:00 +16°C° 0,2 mm 8 m/S 752 mmHg 60%
    21:00 +16°C° 0,3 mm 9 m/S 752 mmHg 61%
    22:00 +16°C° 0,3 mm 9 m/S 751 mmHg 63%
    23:00 +16°C° 0,3 mm 10 m/S 751 mmHg 64%

    18 Dezember, Montag

    Zeit Temperatur Niederschläge Wind Luftdruck Luftfeuchtigkeit
    00:00 +16°C° 0,9 mm 10 m/S 751 mmHg 66%
    01:00 +16°C° 0,9 mm 10 m/S 750 mmHg 68%
    02:00 +16°C° 0,9 mm 10 m/S 750 mmHg 70%
    03:00 +16°C° 0,5 mm 10 m/S 750 mmHg 70%
    04:00 +16°C° 0,5 mm 10 m/S 750 mmHg 71%
    05:00 +16°C° 0,5 mm 9 m/S 749 mmHg 72%
    06:00 +17°C° 0,6 mm 10 m/S 750 mmHg 70%
    07:00 +17°C° 0,6 mm 11 m/S 750 mmHg 68%
    08:00 +18°C° 0,6 mm 11 m/S 751 mmHg 66%
    09:00 +18°C° 0,4 mm 11 m/S 751 mmHg 66%
    10:00 +18°C° 0,4 mm 11 m/S 751 mmHg 66%
    11:00 +19°C° 0,4 mm 11 m/S 752 mmHg 66%
    12:00 +19°C° 0,2 mm 11 m/S 752 mmHg 65%
    13:00 +19°C° 0,2 mm 10 m/S 752 mmHg 64%
    14:00 +21°C° 0,2 mm 10 m/S 752 mmHg 63%
    15:00 +19°C° 0,2 mm 9 m/S 752 mmHg 65%
    16:00 +19°C° 0,2 mm 9 m/S 753 mmHg 67%
    17:00 +20°C° 0,2 mm 8 m/S 753 mmHg 69%
    18:00 +18°C° 0,2 mm 8 m/S 753 mmHg 72%
    19:00 +18°C° 0,2 mm 7 m/S 754 mmHg 74%
    20:00 +17°C° 0,2 mm 6 m/S 755 mmHg 77%
    21:00 +17°C° 0,3 mm 6 m/S 755 mmHg 78%
    22:00 +17°C° 0,3 mm 6 m/S 755 mmHg 80%
    23:00 +17°C° 0,3 mm 5 m/S 755 mmHg 82%
    Mehr zeigen